Concord, NH

10:53 PM EST on January 18, 2017 (GMT -0500)
Concord Municipal

Weather History for KCON - January, 2014

Change the Weather History Date:

Saturday, January 11, 2014

  Actual Average Record
Temperature  
Mean Temperature 36 °F 20 °F  
Max Temperature 48 °F 30 °F 58 °F (1980)
Min Temperature 24 °F 10 °F -27 °F (1976)
Degree Days  
Heating Degree Days 29 45  
Month to date heating degree days 551 485  
Since 1 July heating degree days 3346 3231  
Cooling Degree Days 0 0  
Month to date cooling degree days 0 0  
Year to date cooling degree days 0 0  
Moisture  
Dew Point 31 °F    
Average Humidity 91    
Maximum Humidity 100    
Minimum Humidity 81    
Precipitation  
Precipitation 0.46 in 0.08 in 1.98 in (1983)
Month to date precipitation 2.23 0.95  
Year to date precipitation 2.23 0.95  
Snow  
Snow 0.00 in 0.60 in 8.70 in (1922)
Month to date snowfall 8.8 6.3  
Since 1 July snowfall 28.9 23.4  
Snow Depth 10.00 in    
Sea Level Pressure  
Sea Level Pressure 29.75 in    
Wind  
Wind Speed 2 mph (West)    
Max Wind Speed 15 mph    
Max Gust Speed 18 mph    
Visibility 2 miles    
Events Fog , Rain    
T = Trace of Precipitation, MM = Missing Value Source: NWS Daily Summary

Daily Weather History Graph

Daily Weather History Graph

Search for Another Location

Airport or City:

Trip Planner

Search our weather history database for the weather conditions in past years. The results will help you decide how hot, cold, wet, or windy it might be!

Date:

Astronomy

Jan. 11, 2014 Rise Set
Actual Time 7:16 AM EST 4:31 PM EST
Civil Twilight 6:44 AM EST 5:03 PM EST
Nautical Twilight 6:09 AM EST 5:38 PM EST
Astronomical Twilight 5:35 AM EST 6:13 PM EST
Moon 1:14 PM EST (1/11) 3:17 AM EST (1/11)
Length of Visible Light 10h 18m
Length of Day
9h 14m
Waxing Gibbous, 83% of the Moon is Illuminated
Jan 11
Waxing Gibbous
Jan 15
Full
Jan 24
Last Quarter
Jan 30
New
Feb 6
First Quarter

Hourly Weather History & Observations

Time (EST) Temp. Windchill Dew Point Humidity Pressure Visibility Wind Dir Wind Speed Gust Speed Precip Events Conditions
12:51 AM 24.1 °F - 19.9 °F 84% 30.25 in 7.0 mi Calm Calm - N/A   Overcast
1:15 AM 24.1 °F - 19.9 °F 84% 30.23 in 8.0 mi Calm Calm - N/A   Overcast
1:34 AM 24.1 °F - 19.9 °F 84% 30.23 in 8.0 mi Calm Calm - N/A   Overcast
1:51 AM 24.1 °F - 19.9 °F 84% 30.24 in 8.0 mi Calm Calm - N/A   Overcast
2:42 AM 24.1 °F - 21.0 °F 88% 30.21 in 2.5 mi Calm Calm - N/A   Overcast
2:51 AM 24.1 °F - 21.9 °F 91% 30.23 in 2.0 mi Calm Calm - 0.01 in Rain Light Freezing Rain
3:13 AM 25.0 °F - 23.0 °F 92% 30.19 in 1.8 mi Calm Calm - 0.00 in Rain Light Freezing Rain
3:19 AM 25.0 °F - 23.0 °F 92% 30.19 in 3.0 mi Calm Calm - 0.00 in   Overcast
3:35 AM 25.0 °F 20.7 °F 24.1 °F 96% 30.17 in 2.0 mi NNW 3.5 mph - 0.01 in Rain Light Freezing Rain
3:51 AM 25.0 °F - 24.1 °F 96% 30.18 in 1.8 mi Calm Calm - 0.02 in Rain Light Freezing Rain
4:01 AM 25.0 °F - 25.0 °F 100% 30.15 in 1.2 mi Calm Calm - 0.00 in Rain Light Freezing Rain
4:11 AM 26.1 °F - 24.1 °F 92% 30.15 in 1.8 mi Calm Calm - 0.01 in Rain Light Freezing Rain
4:18 AM 26.1 °F 21.9 °F 24.1 °F 92% 30.14 in 1.8 mi WNW 3.5 mph - 0.01 in Rain Light Freezing Rain
4:51 AM 26.1 °F - 25.0 °F 96% 30.14 in 1.2 mi Calm Calm - 0.02 in Rain Light Freezing Rain
4:59 AM 26.1 °F - 24.1 °F 92% 30.12 in 2.0 mi Calm Calm - 0.00 in Rain Light Freezing Rain
5:28 AM 26.1 °F - 25.0 °F 96% 30.10 in 2.5 mi Calm Calm - 0.00 in   Overcast
5:40 AM 27.0 °F 20.5 °F 25.0 °F 92% 30.10 in 2.0 mi NW 5.8 mph - 0.01 in Rain Light Freezing Rain
5:51 AM 27.0 °F - 26.1 °F 96% 30.10 in 1.8 mi Calm Calm - 0.02 in Rain Light Freezing Rain
6:01 AM 27.0 °F - 27.0 °F 100% 30.08 in 1.8 mi Calm Calm - 0.01 in Rain Light Freezing Rain
6:06 AM 27.0 °F - 26.1 °F 96% 30.07 in 2.0 mi Calm Calm - 0.02 in   Overcast
6:51 AM 28.0 °F - 27.0 °F 96% 30.06 in 2.5 mi Calm Calm - 0.02 in   Overcast
7:02 AM 28.0 °F 24.2 °F 27.0 °F 96% 30.04 in 3.0 mi NW 3.5 mph - N/A   Overcast
7:16 AM 28.0 °F - 27.0 °F 96% 30.03 in 2.5 mi Calm Calm - N/A   Overcast
7:33 AM 28.0 °F - 28.0 °F 100% 30.01 in 1.2 mi Calm Calm - 0.01 in   Overcast
7:51 AM 28.0 °F - 27.0 °F 96% 30.01 in 0.8 mi Calm Calm - 0.01 in   Overcast
8:25 AM 28.0 °F - 27.0 °F 96% 29.96 in 0.5 mi Calm Calm - 0.00 in Fog Light Freezing Fog
8:32 AM 28.9 °F 23.9 °F 28.0 °F 96% 29.95 in 0.2 mi WNW 4.6 mph - 0.01 in Fog Light Freezing Fog
8:39 AM 28.9 °F 23.9 °F 28.0 °F 96% 29.95 in 0.5 mi WNW 4.6 mph - 0.01 in Fog , Rain Light Freezing Rain
8:51 AM 28.9 °F - 28.9 °F 100% 29.96 in 0.5 mi Calm Calm - 0.02 in Fog , Rain Light Freezing Rain
9:05 AM 28.9 °F - 28.9 °F 100% 29.93 in 0.2 mi Calm Calm - 0.01 in Fog , Rain Light Freezing Rain
9:12 AM 28.9 °F - 28.9 °F 100% 29.92 in 0.2 mi Calm Calm - 0.01 in Fog , Rain Light Freezing Rain
9:23 AM 28.9 °F 25.2 °F 28.9 °F 100% 29.92 in 0.5 mi West 3.5 mph - 0.01 in Fog Light Freezing Fog
9:31 AM 30.0 °F 26.5 °F 28.9 °F 96% 29.91 in 0.5 mi WNW 3.5 mph - 0.03 in Fog , Rain Light Freezing Rain
9:51 AM 30.0 °F - 30.0 °F 100% 29.92 in 0.8 mi Calm Calm - 0.06 in Rain Light Freezing Rain
10:10 AM 30.9 °F - 30.0 °F 96% 29.89 in 0.8 mi Calm Calm - 0.01 in   Overcast
10:28 AM 30.9 °F - 30.9 °F 100% 29.86 in 1.0 mi Calm Calm - 0.02 in   Overcast
10:51 AM 30.9 °F - 30.9 °F 100% 29.86 in 1.0 mi Calm Calm - 0.03 in   Overcast
11:10 AM 30.9 °F - 30.9 °F 100% 29.81 in 0.8 mi Calm Calm - 0.00 in   Overcast
11:51 AM 32.0 °F - 32.0 °F 100% 29.78 in 0.5 mi Calm Calm - 0.01 in Fog Fog
12:04 PM 32.0 °F - 30.9 °F 96% 29.74 in 0.2 mi Calm Calm - 0.00 in Fog Fog
12:51 PM 32.0 °F - 32.0 °F 100% 29.69 in 0.2 mi Calm Calm - 0.00 in Fog Fog
1:18 PM 32.0 °F - 32.0 °F 100% 29.65 in 0.2 mi Calm Calm - N/A Fog Fog
1:51 PM 32.0 °F - 32.0 °F 100% 29.63 in 0.2 mi Calm Calm - N/A Fog Fog
2:00 PM 32.0 °F - 32.0 °F 100% 29.61 in 0.2 mi Calm Calm - N/A Fog Fog
2:47 PM 32.0 °F 27.5 °F 32.0 °F 100% 29.55 in 0.2 mi WNW 4.6 mph - 0.01 in Fog Fog
2:51 PM 32.0 °F 25.6 °F 32.0 °F 100% 29.56 in 0.2 mi WNW 6.9 mph - 0.01 in Fog Fog
3:27 PM 32.0 °F 28.7 °F 32.0 °F 100% 29.50 in 0.2 mi NW 3.5 mph - 0.01 in Fog Fog
3:51 PM 32.0 °F 26.4 °F 32.0 °F 100% 29.51 in 0.5 mi West 5.8 mph - 0.04 in Fog Fog
4:21 PM 33.1 °F 30.0 °F 33.1 °F 100% 29.46 in 0.2 mi NNW 3.5 mph - 0.00 in Fog Fog
4:33 PM 33.1 °F 30.0 °F 33.1 °F 100% 29.46 in 0.5 mi WNW 3.5 mph - 0.01 in Fog Fog
4:51 PM 33.1 °F - 33.1 °F 100% 29.45 in 0.5 mi Calm Calm - 0.01 in Fog Fog
5:02 PM 33.1 °F - 33.1 °F 100% 29.42 in 0.2 mi Calm Calm - N/A Fog Fog
5:51 PM 33.1 °F 30.0 °F 33.1 °F 100% 29.39 in 0.2 mi NW 3.5 mph - 0.00 in Fog , Rain Light Rain
6:51 PM 35.1 °F 28.6 °F 34.0 °F 96% 29.35 in 0.2 mi WNW 8.1 mph - 0.03 in Fog , Rain Light Rain
7:11 PM 36.0 °F 33.3 °F 36.0 °F 100% 29.32 in 0.2 mi SE 3.5 mph - 0.02 in Fog , Rain Light Rain
7:19 PM 35.1 °F - 35.1 °F 100% 29.32 in 0.5 mi Calm Calm - 0.02 in Fog , Rain Light Rain
7:39 PM 35.1 °F - 35.1 °F 100% 29.32 in 0.5 mi Calm Calm - 0.04 in Fog , Rain Light Rain
7:51 PM 35.1 °F 30.1 °F 35.1 °F 100% 29.33 in 0.5 mi NW 5.8 mph - 0.06 in Fog , Rain Light Rain
8:20 PM 35.1 °F - 35.1 °F 100% 29.31 in 1.2 mi Calm Calm - 0.02 in Rain Light Rain
8:42 PM 34.0 °F - 34.0 °F 100% 29.32 in 0.5 mi Calm Calm - 0.03 in Fog , Rain Light Rain
8:51 PM 35.1 °F - 35.1 °F 100% 29.32 in 0.8 mi Calm Calm - 0.04 in Rain Light Rain
9:51 PM 34.0 °F - 34.0 °F 100% 29.29 in 0.2 mi Calm Calm - 0.04 in Fog , Rain Light Rain
10:11 PM 37.0 °F 33.3 °F 37.0 °F 100% 29.24 in 0.2 mi SSE 4.6 mph - 0.01 in Fog Fog
10:19 PM 42.1 °F 37.1 °F 39.9 °F 92% 29.24 in 0.2 mi South 8.1 mph - 0.01 in Fog Fog
10:26 PM 46.0 °F 41.4 °F 46.0 °F 100% 29.22 in 0.2 mi SSE 9.2 mph - 0.01 in Fog Fog
10:51 PM 46.9 °F - 46.9 °F 100% 29.25 in 0.2 mi South 10.4 mph - 0.01 in Fog Fog
11:06 PM 48.0 °F - 48.0 °F 100% 29.25 in 0.8 mi SSW 5.8 mph - N/A   Scattered Clouds
11:11 PM 48.0 °F - 48.0 °F 100% 29.23 in 1.5 mi South 5.8 mph - N/A   Scattered Clouds
11:14 PM 48.0 °F - 48.0 °F 100% 29.23 in 3.0 mi South 8.1 mph - N/A   Scattered Clouds
11:20 PM 46.9 °F - 46.9 °F 100% 29.24 in 1.8 mi South 8.1 mph - N/A   Mostly Cloudy
11:28 PM 46.9 °F - 46.9 °F 100% 29.24 in 1.0 mi South 5.8 mph - N/A   Mostly Cloudy
11:33 PM 48.0 °F - 48.0 °F 100% 29.24 in 3.0 mi SSW 4.6 mph - N/A   Mostly Cloudy
11:51 PM 46.9 °F - 46.9 °F 100% 29.25 in 10.0 mi SSW 8.1 mph - N/A   Mostly Cloudy